Location: Wingville
(42.9917°N, 90.4915°W)
Time: 08:03:50
(UTC+00:00)

EO-79 - Pass Details

Date: 30 June 2022
Orbit: 588 x 603 km, 98.0° (Epoch: 15 August)

Event Time Altitude Azimuth Distance (km) Brightness Sun altitude
Rises 08:50:44 0° 358° (N) 2,853 ? -13.7°
Reaches altitude 10° 08:53:22 10° 341° (NNW) 1,949 ? -13.4°
Maximum altitude 08:56:25 20° 295° (WNW) 1,420 ? -13.1°
Enters shadow 08:58:40 14° 257° (WSW) 1,725 ? -12.8°
